This is the latest recevied weather packets stored in our database for station/object SV2HZE-18. If no packets are shown the sender has not sent any weather packets the latest 10 day(s).
| Time | Temp. | Humidity | Pressure | Rain* | Wind** | Luminosity | Snow |
|---|---|---|---|---|---|---|---|
| 1787804509 | 25.56° C | 58% | 1017.9 hPa | - | - | - | - |
| 1787803611 | 25° C | 60% | 1017.5 hPa | - | - | - | - |
| 1787802709 | 25° C | 59% | 1017.3 hPa | - | - | - | - |
| 1787801809 | 25° C | 59% | 1017.3 hPa | - | - | - | - |
| 1787800909 | 25° C | 59% | 1017.3 hPa | - | - | - | - |
| 1787800011 | 25.56° C | 58% | 1017.3 hPa | - | - | - | - |
| 1787799108 | 25.56° C | 57% | 1017.2 hPa | - | - | - | - |
| 1787798208 | 25.56° C | 59% | 1017.2 hPa | - | - | - | - |
| 1787797306 | 25.56° C | 58% | 1017.2 hPa | - | - | - | - |
| 1787796407 | 26.11° C | 57% | 1017.1 hPa | - | - | - | - |
| 1787795503 | 26.11° C | 57% | 1017 hPa | - | - | - | - |
| 1787794605 | 26.11° C | 57% | 1016.9 hPa | - | - | - | - |
| 1787793702 | 26.11° C | 57% | 1017 hPa | - | - | - | - |
| 1787792801 | 26.67° C | 56% | 1017.1 hPa | - | - | - | - |
| 1787791901 | 26.67° C | 57% | 1017.1 hPa | - | - | - | - |
| 1787790100 | 26.67° C | 57% | 1017.1 hPa | - | - | - | - |
| 1787788299 | 26.67° C | 58% | 1017 hPa | - | - | - | - |
| 1787786499 | 26.67° C | 56% | 1017.1 hPa | - | - | - | - |
| 1787784698 | 27.22° C | 56% | 1016.9 hPa | - | - | - | - |
| 1787783804 | 27.22° C | 57% | 1016.8 hPa | - | - | - | - |
| 1787781992 | 27.22° C | 57% | 1016.5 hPa | - | - | - | - |
| 1787781097 | 27.22° C | 58% | 1016.6 hPa | - | - | - | - |
| 1787780194 | 27.22° C | 57% | 1016.4 hPa | - | - | - | - |
| 1787779291 | 27.22° C | 57% | 1016.2 hPa | - | - | - | - |
| 1787777494 | 27.22° C | 57% | 1015.9 hPa | - | - | - | - |
* Rain since midnight (hover to see other rain measurements)
** Current wind speed in m/s (hover to see current wind gust speed)